Terminal Aerodrome Forecast
Issued by NWS Green Bay, WI

Home | Current Version | Previous Version | Graphics & Text | Print | Product List | Glossary On
Versions: 1 2 3 4 5 6 7 8 9 10 11 12 13 14 15 16 17 18 19 20 21 22 23 24 25 26 27
000
FTUS43 KGRB 251100
TAFGRB
TAF
KGRB 251129Z 2512/2612 VRB03KT P6SM SCT014 OVC090
      TEMPO 2512/2515 1SM TSRA BKN014CB
     FM251500 19007KT 6SM HZ BKN035 BKN070
     FM251900 21010G16KT 6SM HZ SCT040 PROB30 2522/2601 2SM TSRA
      OVC025CB
     FM260100 27004KT P6SM SCT040 SCT070
     FM260600 31005KT P6SM SCT050 BKN080=

USA.gov is the U.S. government's official web portal to all federal, state and local government web resources and services.